FW6626 Weather Reports


time (UTC)temp
C
wind
direction
speed
KPH
gust
KPH
rain 1hr
cm
rain 24hr
cm
rain mn
cm
humidity
%
barometer
mb
20260510004610 19 252 4.8 16.1 0.00 0.00 0.00 75 1012.8
20260510003057 18 290 8.0 17.7 0.00 0.00 0.00 76 1012.9
20260510001553 19 259 6.4 19.3 0.00 0.00 0.00 75 1012.8
20260510000104 19 360 9.7 17.7 0.00 0.00 0.00 76 1012.5
20260509234559 20 211 6.4 16.1 0.00 0.00 0.00 74 1012.3
20260509233052 20 252 4.8 19.3 0.00 0.00 0.00 73 1012.5
20260509231554 20 238 8.0 16.1 0.00 0.00 0.00 73 1012.6
20260509230050 20 261 8.0 19.3 0.00 0.00 0.00 73 1012.5
20260509224555 20 225 9.7 17.7 0.00 0.00 0.00 74 1012.8
20260509223101 20 228 4.8 17.7 0.00 0.00 0.00 72 1012.8
20260509221552 21 182 8.0 19.3 0.00 0.00 0.00 71 1012.9
20260509220053 20 250 6.4 16.1 0.00 0.00 0.00 73 1013.0
20260509214602 20 240 6.4 22.5 0.00 0.00 0.00 73 1013.2
20260509213055 20 234 8.0 17.7 0.00 0.00 0.00 73 1013.2
20260509211554 20 252 9.7 20.9 0.00 0.00 0.00 73 1013.4
20260509210106 20 230 9.7 20.9 0.00 0.00 0.00 75 1013.6
20260509204558 20 245 8.0 19.3 0.00 0.00 0.00 74 1013.6
20260509203059 20 234 8.0 17.7 0.00 0.00 0.00 74 1013.8
20260509201608 20 249 9.7 19.3 0.00 0.00 0.00 73 1013.9
20260509200107 20 246 8.0 19.3 0.00 0.00 0.00 74 1013.9
20260509194554 20 360 8.0 19.3 0.00 0.00 0.00 75 1013.8
20260509193057 20 236 8.0 20.9 0.00 0.00 0.00 74 1013.8
20260509191553 20 198 9.7 20.9 0.00 0.00 0.00 75 1013.8
20260509190053 20 222 8.0 16.1 0.00 0.00 0.00 74 1013.9
20260509184602 20 217 8.0 16.1 0.00 0.00 0.00 74 1013.9
20260509183057 20 233 6.4 14.5 0.00 0.00 0.00 74 1014.0
20260509181609 20 211 8.0 17.7 0.00 0.00 0.00 75 1013.9
20260509180051 20 232 6.4 14.5 0.00 0.00 0.00 74 1013.9
20260509174550 20 233 4.8 14.5 0.00 0.00 0.00 75 1014.1
20260509173102 20 234 4.8 14.5 0.00 0.00 0.00 73 1014.1
20260509171556 21 188 4.8 14.5 0.00 0.00 0.00 74 1014.2
20260509170048 20 227 3.2 12.9 0.00 0.00 0.00 75 1014.0
20260509164551 18 253 4.8 11.3 0.00 0.00 0.00 78 1014.1
20260509163050 18 182 1.6 8.0 0.00 0.00 0.00 80 1014.2
20260509161549 17 254 3.2 9.7 0.00 0.00 0.00 81 1014.3
20260509160049 17 217 1.6 6.4 0.00 0.00 0.00 82 1014.2
20260509154552 17 211 3.2 9.7 0.00 0.00 0.00 83 1014.2
20260509153054 17 163 4.8 8.0 0.00 0.00 0.00 82 1014.2
20260509151604 17 191 1.6 6.4 0.00 0.00 0.00 83 1014.2
20260509150050 16 167 1.6 9.7 0.00 0.00 0.00 84 1014.2
20260509144607 16 167 1.6 6.4 0.00 0.00 0.00 84 1014.1
20260509143119 16 0 0.0 6.4 0.00 0.00 0.00 85 1013.9
20260509141554 16 166 3.2 8.0 0.00 0.00 0.00 85 1014.1
20260509134609 16 153 1.6 9.7 0.00 0.00 0.00 85 1014.0
20260509133051 16 151 3.2 11.3 0.00 0.00 0.00 85 1013.8
20260509131551 16 156 3.2 9.7 0.00 0.00 0.00 85 1013.8
20260509130057 16 155 3.2 8.0 0.00 0.00 0.00 85 1013.8
20260509124552 16 163 4.8 11.3 0.00 0.00 0.00 85 1013.8
20260509123109 16 159 4.8 11.3 0.00 0.00 0.00 86 1013.7
20260509121610 16 169 1.6 6.4 0.00 0.00 0.00 86 1013.7
20260509120112 16 170 1.6 6.4 0.00 0.00 0.00 86 1013.7
20260509114605 16 170 4.8 8.0 0.00 0.00 0.00 85 1013.8
20260509113106 16 0 1.6 9.7 0.00 0.00 0.00 86 1013.8
20260509111608 16 155 3.2 9.7 0.00 0.00 0.00 85 1013.7
20260509104553 16 136 1.6 4.8 0.00 0.00 0.00 85 1013.7
20260509103102 16 135 1.6 3.2 0.00 0.00 0.00 85 1013.9
20260509101618 16 135 1.6 4.8 0.00 0.00 0.00 86 1014.0
20260509100051 16 134 0.0 8.0 0.00 0.00 0.00 85 1014.0
20260509094548 16 146 4.8 11.3 0.00 0.00 0.00 85 1014.1
20260509093104 16 154 1.6 8.0 0.00 0.00 0.00 85 1014.1
20260509091553 16 155 3.2 9.7 0.00 0.00 0.00 85 1014.1
20260509084552 16 0 0.0 3.2 0.00 0.00 0.00 85 1014.3
20260509083052 16 173 3.2 8.0 0.00 0.00 0.00 85 1014.5
20260509081606 16 174 0.0 4.8 0.00 0.00 0.00 85 1014.5
20260509080056 16 0 0.0 4.8 0.00 0.00 0.00 85 1014.6
20260509074558 16 174 1.6 8.0 0.00 0.00 0.00 85 1014.9
20260509073056 16 175 3.2 8.0 0.00 0.00 0.00 85 1014.9
20260509071558 16 163 6.4 14.5 0.00 0.00 0.00 85 1015.0
20260509070052 16 109 4.8 9.7 0.00 0.00 0.00 85 1015.1
20260509064605 16 128 1.6 8.0 0.00 0.00 0.00 84 1015.2
20260509063048 16 0 1.6 6.4 0.00 0.00 0.00 84 1015.1
20260509061555 16 250 1.6 6.4 0.00 0.00 0.00 84 1015.2
20260509060054 16 253 0.0 4.8 0.00 0.00 0.00 84 1015.3
20260509054600 16 254 1.6 6.4 0.00 0.00 0.00 84 1015.3
20260509053058 16 0 0.0 3.2 0.00 0.00 0.00 84 1015.4
20260509051558 16 0 0.0 3.2 0.00 0.00 0.00 84 1015.3
20260509050052 16 0 0.0 3.2 0.00 0.00 0.00 84 1015.4
20260509044557 16 257 0.0 6.4 0.00 0.00 0.00 84 1015.4
20260509043050 16 0 0.0 3.2 0.00 0.00 0.00 84 1015.3
20260509041617 16 261 1.6 4.8 0.00 0.00 0.00 84 1015.2
20260509040055 16 0 1.6 4.8 0.00 0.00 0.00 84 1015.1
20260509034551 16 0 0.0 6.4 0.00 0.00 0.00 83 1015.1
20260509033053 16 0 1.6 6.4 0.00 0.00 0.00 83 1014.9
20260509031554 16 246 1.6 8.0 0.00 0.00 0.00 83 1014.7
20260509030053 16 216 3.2 12.9 0.00 0.00 0.00 83 1014.8
20260509024551 16 249 4.8 12.9 0.00 0.00 0.00 83 1014.6
20260509023106 16 0 1.6 14.5 0.00 0.00 0.00 83 1014.3
20260509021548 17 245 3.2 11.3 0.00 0.00 0.00 82 1014.4
20260509020055 17 250 4.8 11.3 0.00 0.00 0.00 82 1014.2
20260509014550 17 295 3.2 16.1 0.00 0.00 0.00 82 1014.1
20260509013054 17 298 4.8 14.5 0.00 0.00 0.00 81 1014.2
20260509011556 17 262 4.8 12.9 0.00 0.00 0.00 81 1014.2
20260509010053 18 296 8.0 17.7 0.00 0.00 0.00 79 1014.1